Location: Bauerbach
(50.4985°N, 10.3912°E)
Time: 06:57:45
(UTC+00:00)

USA 32 - Pass Details

Date: 13 January 2026
Orbit: 774 x 780 km, 85.0° (Epoch: 17 February)

Event Time Altitude Azimuth Distance (km) Brightness Sun altitude
Rises 05:35:27 0° 183° (S) 3,253 7.4 -15.1°
Reaches altitude 10° 05:37:47 10° 184° (S) 2,330 6.7 -14.8°
Maximum altitude 05:43:02 88° 99° (E) 789 4.0 -14.0°
Drops below altitude 10° 05:48:19 10° 7° (N) 2,347 6.4 -13.2°
Sets 05:50:41 0° 7° (N) 3,280 7.2 -12.8°
